STARLINK-35972

Last updated on Wed Dec 31 2025 00:02:07 GMT+0000 (Coordinated Universal Time)

1 66638U 25271X 25364.52879301 .00072897 00000+0 18158-2 0 9998 2 66638 53.1609 102.8979 0001479 72.7715 287.3452 15.39607606 6955
UTC large
Height (km)
Speed (km/s)
/
Latitude / Longitude
Inclination (degrees)
Orbital Period (minutes)
Azimuth
Elevation
Range (km)
Doppler Factor

Next 0 passes for location: London (51.5072 / 0.1276)

Sorry there are no passes over London.